Powrót do katalogu

STARLINK-31108

AktywnyŁącznośćVLEO
NORAD 58738·PAYLOAD·🇺🇸 United States

Wystrzelony Jan 7, 2024 z Cape Canaveral Space Force Station

Loading…

Następne Przeloty (najbliższe 24 godziny)

TLE

ŚwieżeSource: CelesTrak SupGP

Epoka: Sep 14, 2026, 22:15 UTC

1 58738C 24005L   26257.92756944  .00020721  00000+0  75056-3 0  2574
2 58738  43.0019 230.8875 0001303 257.2563 217.8509 15.27566415    15

Śledź STARLINK-31108 w czasie rzeczywistym z AllMySat

Download on the App Store